Location: Perugia
(43.1330°N, 12.3670°E)
Time: 06:55:15
(UTC+01:00)

ISS - Pass Details

Date: 25 January 2021
Orbit: 417 x 422 km, 51.6° (Epoch: 05 March)

Event Time Altitude Azimuth Distance (km) Brightness Sun altitude
Rises 19:35:01 0° 294° (WNW) 2,373 1.1 -25.7°
Reaches altitude 10° 19:37:33 10° 313° (NW) 1,509 -0.4 -26.2°
Enters shadow 19:38:23 14° 325° (NW) 1,289 -0.9 -26.3°
